Date,TemperatureHighF,TemperatureAvgF,TemperatureLowF,DewpointHighF,DewpointAvgF,DewpointLowF,HumidityHigh,HumidityAvg,HumidityLow,PressureMaxIn,PressureMinIn,WindSpeedMaxMPH,WindSpeedAvgMPH,GustSpeedMaxMPH,PrecipitationSumIn
2013-1-1,31.6,17.3,2.1,27.9,9.4,-1.7,93,71,56,29.96,29.65,16,3,19,0.00
2013-1-2,14.7,5.7,-9.0,11.3,0.8,-13.0,88,80,66,30.27,29.86,13,2,14,0.00
2013-1-3,14.5,-1.3,-12.8,9.5,-6.7,-17.0,88,78,61,30.28,29.91,7,1,9,0.00
2013-1-4,34.9,27.1,9.5,26.1,20.6,4.6,90,77,67,29.91,29.72,17,4,20,0.00
2013-1-5,34.0,23.0,8.8,26.8,15.3,5.7,89,73,57,30.23,29.75,21,3,28,0.00
2013-1-6,34.0,26.1,12.0,29.1,21.7,9.0,91,83,76,30.17,29.86,13,2,14,0.00
2013-1-7,24.6,17.5,10.2,18.7,12.6,7.3,90,81,66,30.37,29.99,14,2,18,0.00
2013-1-8,37.6,28.6,18.3,24.6,21.2,16.2,92,74,59,30.35,30.16,22,4,24,0.00
2013-1-9,42.4,27.9,15.1,32.0,21.8,12.9,93,79,57,30.35,29.88,20,3,27,0.01
2013-1-10,39.7,34.9,25.0,32.4,26.4,22.1,93,71,59,30.54,30.00,19,4,24,0.02
2013-1-11,39.4,31.7,21.9,36.5,25.4,19.9,93,79,57,30.53,30.04,18,2,20,0.05
2013-1-12,47.5,43.2,38.8,42.8,40.0,36.0,94,89,83,30.09,29.99,16,3,19,0.01
2013-1-13,49.1,43.4,35.1,46.0,41.0,33.4,96,91,83,30.09,29.80,20,4,22,0.00
2013-1-14,50.4,43.1,34.3,46.9,34.9,23.7,93,74,54,30.27,29.73,19,4,24,0.00
2013-1-15,34.3,29.7,23.7,25.2,20.9,17.4,84,70,54,30.33,30.22,8,1,10,0.00
2013-1-16,31.3,29.1,26.2,28.6,25.0,20.8,93,85,73,30.22,29.74,11,1,15,0.00
2013-1-17,32.4,19.6,5.2,27.9,10.7,-5.3,88,69,46,30.20,29.75,14,3,18,0.00
2013-1-18,19.4,8.4,-3.8,1.4,-3.8,-8.3,85,59,39,30.37,30.17,17,2,17,0.00
2013-1-19,41.2,32.4,19.8,25.5,19.8,12.0,88,60,52,30.17,29.67,22,6,23,0.00
2013-1-20,43.5,33.5,14.2,32.5,20.6,4.1,89,59,48,29.96,29.35,33,8,41,0.01
2013-1-21,17.2,10.5,4.8,6.4,3.3,-0.8,87,73,53,30.06,29.82,8,1,9,0.00
2013-1-22,12.4,6.7,0.1,5.9,-0.1,-11.4,88,74,44,30.09,29.81,18,2,19,0.00
2013-1-23,0.9,-4.9,-10.5,-8.7,-14.3,-17.1,79,64,47,30.22,30.09,13,2,13,0.00
2013-1-24,10.8,-1.4,-13.2,-6.9,-11.7,-17.3,82,63,38,30.38,30.16,14,2,18,0.00
2013-1-25,11.5,5.0,-4.2,4.5,-4.3,-9.6,83,65,51,30.40,30.11,9,1,9,0.00
2013-1-26,14.2,8.5,1.2,5.7,0.5,-4.0,85,70,47,30.31,30.10,11,1,12,0.00
2013-1-27,19.2,9.7,2.8,5.2,-0.5,-3.6,79,64,37,30.52,30.31,10,1,12,0.00
2013-1-28,22.3,14.6,2.8,19.2,9.0,-1.8,90,79,50,30.48,29.97,8,1,9,0.00
2013-1-29,39.7,29.5,21.6,36.7,25.5,18.0,91,85,75,30.17,29.92,14,1,17,0.17
2013-1-30,57.4,48.5,38.8,54.3,45.5,36.1,93,89,87,29.92,29.21,25,8,33,0.18
2013-1-31,56.5,39.1,23.0,54.1,29.3,6.3,97,69,44,29.51,28.75,37,8,37,0.28